Regional Weather Roundup
Issued by NWS

Home | Current Version | Previous Version | Text Only | Print | Product List | Glossary On
Versions: 1 2 3 4 5 6 7 8 9 10 11 12 13 14 15 16 17 18 19 20 21 22 23 24 25 26 27
000
ASUS46 KPQR 300710
RWROR

OREGON REGIONAL WEATHER ROUNDUP
NATIONAL WEATHER SERVICE PORTLAND OR
1200 AM PDT THU JUN 30 2022

NOTE: "FAIR" INDICATES FEW OR NO CLOUDS BELOW 12,000 FEET WITH
NO SIGNIFICANT WEATHER AND/OR OBSTRUCTIONS TO VISIBILITY.

ORZ001>013-300800-
NORTHWEST OREGON


CITY           SKY/WX    TMP DP  RH WIND       PRES   REMARKS
ASTORIA        CLOUDY    59  50  72 N7        30.17F
TILLAMOOK      CLOUDY    55  52  88 CALM      30.19S
NEWPORT        CLOUDY    54  50  87 N5        30.20S
FLORENCE       FAIR      55  52  88 VRB6G13   30.15S
PORTLAND       CLEAR     60  50  69 NW6       30.13S
VANCOUVER WA   CLEAR     60  50  69 NW8       30.13S
SCAPPOOSE      CLEAR     59  50  72 NW7       30.13S
HILLSBORO      CLEAR     55  49  80 NW8       30.13S
AURORA         CLEAR     57  51  80 N5        30.14R
MCMINNVILLE    CLEAR     57  52  83 NW7       30.13R
SALEM          CLEAR     58  51  78 N6        30.12S
CORVALLIS      CLEAR     56  51  84 NW13      30.14R
EUGENE         CLEAR     56  52  86 NW3       30.12R
CRESWELL         N/A     57  54  88 CALM      30.10S
$$

ORZ021-028-300800-
SOUTHWEST OREGON


CITY           SKY/WX    TMP DP  RH WIND       PRES   REMARKS
NORTH BEND     CLOUDY    55  51  86 N7        30.18F
BROOKINGS      CLOUDY    54  52  93 CALM      30.09S
ROSEBURG       CLEAR     64  51  62 NE5       30.09S
SEXTON SUMMIT  CLEAR     55  45  68 N10G23    30.15S
GRANTS PASS    FAIR      70  48  46 NW7       30.10R
MEDFORD        CLEAR     68  42  38 CALM      30.05S
$$

ORZ014>016-041-300800-
COLUMBIA GORGE


CITY           SKY/WX    TMP DP  RH WIND       PRES   REMARKS
TROUTDALE      CLEAR     60  51  72 CALM      30.13R
HOOD RIVER     CLEAR     59  50  72 CALM      30.07S
THE DALLES     CLEAR     70  51  51 NW9       30.04R
$$

ORZ029>031-041-044-049-050-061>064-502-503-505>511-300800-
EASTERN OREGON


CITY           SKY/WX    TMP DP  RH WIND       PRES   REMARKS
MADRAS         CLEAR     54  39  58 N5        30.13S
REDMOND        CLEAR     63  43  48 NW8       30.12R
BEND           CLEAR     61  36  39 W6        30.15S
PRINEVILLE     CLEAR     59  36  41 N7        30.12S
KLAMATH FALLS  CLEAR     54  43  66 CALM      30.13R
LAKEVIEW       CLEAR     61  32  33 N13       30.14F
HERMISTON      CLEAR     68  47  46 SW13      30.01R
PENDLETON      CLEAR     60  46  59 NE8       30.05R
JOHN DAY       CLEAR     58  36  42 W3        30.12S
MEACHAM        CLEAR     46  40  79 CALM      30.15S
LA GRANDE      CLEAR     55  43  63 NE3       30.11S
BAKER CITY     CLEAR     50  42  74 S5        30.12S
BURNS          CLEAR     59  34  39 NW9       30.11R
ROME             N/A     57  22  25 W5        30.07S
ONTARIO        CLEAR     70  42  36 N7        30.02S
$$


OTHER REGIONAL REPORTS

CITY           SKY/WX    TMP DP  RH WIND       PRES   REMARKS
SEATTLE        PTCLDY    57  50  77 N5        30.16S
SPOKANE        MOCLDY    63  47  55 NE8       30.08S
VANCOUVER BC   PTCLDY    59  55  88 N2        30.16F
PRINCE GEORGE  LGT RAIN  59  54  82 E6        30.11S
DAWSON CREEK   CLEAR     61  52  72 W2        30.06S
WHITEHORSE     MOCLDY    61  50  67 S3        30.07R
BOISE          CLEAR     65  28  24 S5        30.02R
REDDING        CLEAR     77  36  22 NE3       29.91R
SAN FRANCISCO  CLOUDY    57  51  80 W14G21    30.04F

$$




USA.gov is the U.S. government's official web portal to all federal, state and local government web resources and services.